Temp
64 64 64 64 64 64 64 64 64 64 64 64 64 64 64 64 65 64 64 68 68 72 69 69 68 67 66 63 62 56 49 45 47 51 54 57 57 59 59 59 55 56 55 57 62
63 63 63 64 63 63 63 63 63 63 63 64 64 64 64 63 63 64 70 71 72 71 68 65 63 65 60 59 59 53 46 51 54 53 54 59 59 61 58 55 52 52 56 59 60
62 62 63 63 63 63 63 63 63 63 63 63 63 63 63 61 61 64 70 72 72 70 67 67 65 64 57 57 54 52 50 55 55 57 59 59 56 59 57 52 55 55 56 56 55
62 62 62 62 62 63 63 63 62 62 63 63 63 63 62 61 52 65 70 71 71 68 67 65 63 57 54 53 58 51 56 57 59 58 58 58 58 56 57 57 57 58 56 54 53
61 61 61 61 62 62 62 63 63 62 62 63 63 63 62 58 62 67 68 68 67 67 65 63 59 57 53 54 56 52 54 58 58 59 56 58 55 56 54 51 54 56 56 53 52
61 60 60 60 61 62 62 62 62 62 62 63 63 63 59 53 67 69 67 66 67 65 63 63 60 61 57 55 53 55 55 56 58 57 57 56 53 54 53 52 53 55 52 51 51
62 61 60 60 61 61 61 62 62 62 62 63 64 62 56 60 67 67 68 65 66 65 63 63 64 61 58 54 57 55 51 54 55 56 55 56 51 53 54 52 52 52 50 50 51
61 61 61 60 60 60 61 61 61 61 62 63 63 57 55 65 63 66 66 65 67 67 65 64 64 62 58 57 56 49 47 43 52 54 54 55 46 55 53 51 50 49 46 49 50
60 60 60 61 60 60 60 60 60 61 62 63 57 54 54 66 62 66 64 64 63 64 64 70 63 55 55 49 44 44 39 42 49 54 52 51 47 52 50 51 49 47 46 48 48
60 60 60 60 60 60 60 61 60 60 62 63 63 52 58 57 61 64 63 65 60 59 59 58 52 47 45 45 38 40 40 43 44 51 48 46 48 50 50 50 51 47 46 46 47
60 60 60 60 60 60 57 54 53 52 52 55 55 55 57 59 62 60 64 62 60 56 48 50 46 42 47 48 48 46 42 42 46 53 49 47 48 52 52 48 47 47 47 47 48
59 60 60 60 60 60 54 50 54 54 48 57 56 57 60 61 54 57 63 56 53 47 49 46 42 51 52 50 49 46 43 42 47 51 48 47 46 50 50 50 53 53 50 50 45
59 59 59 59 59 57 52 54 58 57 46 52 55 55 57 59 56 55 60 54 50 47 47 43 50 53 52 47 46 45 42 41 45 45 45 42 40 46 51 51 52 56 57 54 50
59 58 58 58 55 56 53 59 59 56 39 45 50 55 56 58 52 59 61 56 49 47 47 46 52 51 47 46 48 41 49 48 46 41 36 41 34 42 46 49 50 55 52 54 49
58 58 58 59 56 53 59 61 60 57 27 49 50 59 55 56 52 51 56 54 47 48 48 46 46 47 46 47 51 45 48 46 43 38 35 37 33 40 43 45 50 55 52 51 47
57 57 58 56 56 56 59 60 57 41 28 44 48 47 48 50 48 50 52 54 53 49 47 46 49 50 50 49 52 49 45 42 38 36 29 40 37 39 44 49 52 56 54 49 46
56 56 56 59 53 58 60 52 34 30 46 42 42 46 46 44 44 46 45 45 45 40 41 44 46 48 50 46 46 47 44 30 28 25 30 36 34 47 48 51 52 56 51 45 45
56 55 55 58 59 58 54 41 28 36 39 45 44 43 41 45 43 43 41 42 47 44 41 40 37 46 49 49 45 43 42 31 23 24 28 33 30 40 48 53 50 48 46 43 42
55 50 52 56 58 57 48 34 36 37 43 44 45 40 37 41 42 41 39 40 46 47 44 39 38 43 45 47 52 40 37 44 35 18 23 32 37 45 45 46 46 46 41 39 41
45 45 49 57 58 53 44 39 40 46 49 50 43 43 35 40 40 38 37 42 44 49 48 46 37 39 41 47 43 43 46 35 31 21 19 30 31 39 40 44 47 45 40 40 40
45 42 50 57 56 48 39 41 43 47 50 48 45 43 43 39 40 37 38 43 47 45 52 47 42 34 40 39 40 38 37 37 38 31 24 21 35 42 47 47 47 47 43 40 40
45 37 50 55 43 44 41 45 48 46 50 49 49 49 43 44 41 39 38 44 49 49 43 48 44 29 35 39 39 39 39 38 30 28 29 28 39 45 46 48 47 47 44 42 43
39 40 49 52 36 37 45 44 47 45 48 48 46 48 48 45 40 41 41 47 50 50 44 48 39 27 31 35 37 37 41 46 41 34 33 29 40 42 42 43 45 46 41 41 40
40 34 39 42 44 41 39 40 41 47 46 49 49 49 45 44 49 41 40 47 49 50 49 53 41 37 36 37 39 34 37 41 44 36 35 39 44 42 43 45 46 44 41 40 41
39 35 37 34 36 38 40 40 40 40 46 47 43 45 44 40 44 42 45 43 45 47 49 49 37 39 44 44 41 39 38 41 39 43 39 45 44 52 49 48 50 46 40 39 40
34 34 37 36 38 39 39 38 37 39 39 39 41 45 45 42 44 41 45 45 43 43 43 45 38 41 38 43 38 36 37 41 42 44 45 46 46 52 52 46 45 46 42 41 42
38 42 36 34 33 32 35 38 39 42 43 43 43 41 39 43 47 49 50 48 47 46 42 41 39 34 33 40 34 31 39 37 40 45 44 39 47 48 49 48 46 44 43 44 44
MSLP
1019.04 1019.23 1019.33 1019.20 1019.02 1018.97 1018.87 1018.83 1018.55 1018.41 1018.22 1018.01 1017.63 1017.22 1016.88 1016.40 1015.58 1015.52 1015.44 1015.39 1015.19 1014.92 1014.83 1014.63 1014.31 1014.31 1014.43 1015.00 1015.44 1016.12 1017.35 1017.98 1017.48 1017.41 1016.54 1016.21 1016.43 1016.66 1016.99 1017.90 1019.08 1019.67 1019.89 1019.88 1020.36
1019.33 1019.23 1019.31 1019.27 1019.16 1019.04 1018.96 1018.74 1018.72 1018.41 1018.29 1017.92 1017.60 1017.06 1016.77 1016.45 1015.99 1015.59 1015.29 1015.09 1015.06 1014.97 1014.85 1014.78 1014.66 1014.59 1015.09 1015.43 1015.85 1016.49 1017.53 1017.32 1016.92 1016.70 1016.47 1016.26 1016.33 1016.73 1017.41 1018.45 1019.57 1020.06 1020.24 1020.30 1020.65
1019.51 1019.42 1019.33 1019.26 1019.10 1019.04 1019.06 1018.90 1018.73 1018.54 1018.23 1017.88 1017.40 1016.93 1016.65 1016.42 1016.14 1015.44 1015.15 1015.08 1015.01 1015.03 1015.03 1014.97 1014.76 1014.75 1015.19 1015.53 1016.03 1016.49 1016.89 1016.75 1016.71 1016.45 1016.32 1016.47 1016.57 1016.82 1017.54 1018.69 1019.10 1019.80 1020.38 1020.66 1021.05
1019.44 1019.35 1019.34 1019.29 1019.15 1018.99 1018.95 1018.95 1018.74 1018.45 1018.19 1017.80 1017.31 1016.96 1016.43 1016.27 1016.15 1015.25 1015.05 1015.11 1015.08 1015.15 1014.96 1014.92 1014.84 1015.06 1015.50 1015.78 1015.96 1016.40 1016.45 1016.40 1016.51 1016.43 1016.36 1016.66 1016.74 1017.18 1017.79 1018.15 1018.42 1019.15 1020.10 1020.76 1021.32
1019.45 1019.37 1019.29 1019.29 1019.21 1019.07 1018.95 1018.77 1018.73 1018.55 1018.16 1017.84 1017.39 1016.94 1016.28 1016.13 1015.57 1015.10 1015.10 1015.15 1015.18 1015.09 1015.00 1015.01 1015.11 1015.28 1015.74 1015.89 1016.15 1016.40 1016.50 1016.36 1016.44 1016.56 1016.65 1016.77 1017.11 1017.53 1018.16 1018.75 1019.12 1019.61 1020.44 1021.15 1021.59
1019.22 1019.40 1019.36 1019.31 1019.22 1019.07 1018.96 1018.85 1018.67 1018.50 1018.29 1017.90 1017.55 1016.94 1016.72 1016.34 1015.13 1015.15 1015.18 1015.20 1015.15 1015.11 1015.08 1015.10 1015.33 1015.37 1015.80 1016.14 1016.44 1016.56 1016.72 1016.65 1016.58 1016.74 1016.87 1017.20 1017.51 1017.90 1018.39 1019.12 1019.83 1020.30 1020.84 1021.37 1021.67
1018.96 1019.11 1019.34 1019.35 1019.20 1019.04 1018.97 1018.83 1018.67 1018.40 1018.28 1018.06 1017.73 1017.46 1017.08 1016.11 1015.36 1015.31 1015.22 1015.24 1015.21 1015.23 1015.33 1015.41 1015.37 1015.58 1016.05 1016.51 1016.74 1016.95 1017.27 1017.13 1016.79 1016.93 1017.16 1017.42 1018.13 1017.95 1018.38 1019.46 1020.23 1020.72 1021.08 1021.55 1021.73
1018.93 1018.76 1019.04 1019.24 1019.26 1019.07 1018.91 1018.82 1018.63 1018.44 1018.15 1018.01 1017.83 1017.64 1016.65 1015.63 1015.51 1015.45 1015.38 1015.33 1015.31 1015.32 1015.47 1015.57 1015.55 1015.98 1016.58 1017.02 1017.37 1017.71 1017.96 1017.98 1017.15 1017.18 1017.36 1017.82 1017.82 1017.59 1018.38 1019.45 1020.27 1020.88 1021.33 1021.53 1021.72
1018.71 1018.63 1018.78 1018.97 1019.05 1019.12 1018.97 1018.69 1018.56 1018.41 1018.10 1017.92 1017.90 1017.64 1016.52 1015.57 1015.66 1015.47 1015.52 1015.68 1015.73 1015.84 1015.82 1015.81 1015.99 1016.97 1017.39 1018.09 1018.74 1018.83 1018.68 1018.56 1017.81 1017.45 1017.73 1018.16 1017.90 1017.76 1018.45 1019.34 1020.17 1020.67 1021.14 1021.25 1021.50
1018.48 1018.39 1018.60 1018.83 1018.91 1018.95 1018.86 1018.57 1018.28 1018.35 1017.87 1017.89 1017.82 1018.04 1016.31 1015.72 1015.51 1015.51 1015.63 1015.84 1016.20 1016.34 1016.54 1016.67 1017.46 1018.12 1018.66 1018.92 1019.19 1019.07 1019.12 1018.56 1018.08 1017.80 1018.04 1018.39 1017.89 1017.97 1018.58 1019.23 1019.37 1019.98 1020.46 1020.87 1020.99
1018.10 1018.18 1018.39 1018.62 1018.86 1018.94 1018.96 1018.56 1018.70 1018.59 1018.15 1016.89 1016.67 1016.36 1015.90 1015.90 1015.68 1015.74 1015.75 1016.09 1016.55 1017.02 1017.41 1017.64 1018.36 1018.49 1018.09 1018.40 1018.29 1018.54 1018.75 1018.56 1017.97 1017.51 1018.05 1018.04 1018.05 1017.66 1018.10 1018.81 1019.08 1019.37 1019.45 1019.76 1019.97
1017.50 1017.83 1018.22 1018.52 1018.77 1019.01 1019.21 1018.90 1017.98 1018.03 1017.44 1016.29 1016.29 1016.18 1015.71 1015.60 1016.04 1016.06 1015.91 1016.49 1017.01 1017.61 1018.00 1018.54 1018.28 1017.53 1018.03 1018.47 1018.65 1018.67 1018.79 1018.57 1018.07 1017.66 1018.08 1017.79 1017.72 1017.26 1017.47 1017.38 1017.24 1017.41 1017.89 1018.21 1019.24
1017.05 1017.36 1017.74 1018.32 1018.73 1018.99 1019.12 1018.33 1017.77 1017.65 1017.74 1015.95 1015.32 1015.05 1015.01 1015.53 1015.39 1015.58 1016.00 1016.48 1016.98 1017.83 1018.14 1017.92 1017.21 1017.05 1017.84 1018.33 1018.76 1018.58 1018.59 1018.55 1018.48 1018.14 1018.09 1018.20 1017.63 1017.00 1016.01 1015.81 1015.79 1015.74 1015.86 1016.46 1017.20
1017.14 1017.22 1017.45 1017.83 1019.24 1018.26 1018.32 1017.27 1017.59 1017.88 1017.83 1015.47 1014.59 1013.26 1013.88 1014.59 1015.19 1014.65 1014.96 1015.58 1016.78 1017.07 1017.87 1017.77 1016.97 1017.28 1017.70 1017.90 1018.21 1018.24 1017.79 1018.27 1018.63 1018.95 1018.91 1018.62 1016.91 1016.26 1015.65 1015.23 1014.95 1014.35 1014.87 1015.04 1016.27
1016.88 1016.98 1017.21 1017.27 1017.28 1017.78 1016.89 1016.81 1017.51 1018.05 1017.46 1013.76 1013.38 1013.06 1013.33 1014.05 1014.35 1014.97 1014.87 1015.19 1015.77 1016.50 1017.24 1016.43 1016.62 1016.98 1017.11 1017.00 1017.52 1017.66 1017.74 1018.33 1018.75 1019.27 1019.54 1018.99 1018.77 1015.12 1014.93 1014.71 1013.92 1013.00 1013.24 1014.14 1015.07
1016.82 1016.84 1016.88 1017.07 1016.98 1016.92 1017.17 1017.12 1018.02 1018.47 1015.74 1013.78 1013.27 1013.34 1014.07 1014.23 1014.76 1015.21 1015.18 1015.23 1015.46 1016.26 1016.34 1016.16 1016.01 1016.19 1016.07 1016.64 1016.97 1017.62 1018.24 1019.11 1019.81 1020.27 1019.95 1018.59 1018.44 1014.19 1014.23 1012.96 1012.26 1011.74 1012.32 1013.14 1014.23
1016.62 1016.52 1016.78 1016.33 1016.22 1016.72 1017.05 1018.03 1018.98 1017.34 1014.04 1013.72 1013.63 1013.64 1014.04 1014.54 1015.22 1015.21 1015.28 1015.22 1015.15 1016.16 1015.99 1016.28 1015.89 1015.69 1015.80 1016.73 1017.36 1017.66 1018.80 1020.16 1020.96 1021.28 1019.25 1017.95 1017.54 1013.30 1012.60 1011.84 1011.58 1011.50 1011.90 1012.85 1013.93
1016.57 1016.48 1016.12 1015.96 1015.97 1016.34 1017.01 1018.05 1016.83 1015.54 1014.52 1013.40 1013.56 1014.06 1014.44 1014.66 1015.23 1015.56 1015.52 1015.51 1015.07 1014.89 1015.34 1015.78 1015.71 1015.09 1014.94 1014.90 1016.00 1017.22 1017.85 1019.06 1020.13 1020.90 1019.60 1018.59 1016.09 1012.71 1011.47 1010.84 1011.14 1011.43 1011.98 1013.10 1014.45
1016.38 1016.18 1015.88 1015.35 1015.67 1015.66 1016.21 1015.51 1014.35 1014.01 1013.88 1013.24 1013.68 1014.31 1014.80 1014.75 1015.08 1015.64 1015.68 1014.96 1013.97 1014.03 1014.45 1014.82 1014.82 1014.24 1014.42 1014.64 1015.24 1017.05 1017.39 1017.78 1019.14 1020.96 1020.45 1017.15 1014.38 1012.36 1011.38 1011.35 1011.31 1011.35 1012.47 1013.62 1014.43
1016.74 1016.31 1014.92 1014.34 1015.01 1014.98 1014.54 1013.62 1013.44 1012.70 1012.45 1012.23 1012.33 1013.14 1013.72 1014.46 1015.12 1015.52 1015.28 1013.64 1013.62 1013.23 1013.33 1013.61 1014.48 1014.69 1014.80 1014.89 1015.39 1015.52 1016.20 1018.08 1019.18 1020.24 1019.60 1016.24 1014.46 1012.05 1011.29 1011.07 1011.01 1011.44 1012.54 1013.51 1014.43
1016.58 1016.05 1013.64 1013.38 1014.62 1014.23 1011.92 1011.64 1011.65 1011.63 1011.58 1011.65 1011.73 1012.46 1013.01 1013.44 1013.72 1014.40 1013.90 1013.12 1012.79 1012.80 1012.88 1013.23 1013.88 1015.29 1015.23 1014.62 1014.75 1015.84 1015.82 1016.72 1017.64 1018.29 1017.89 1016.22 1011.97 1010.26 1010.06 1010.11 1010.57 1011.18 1011.81 1013.03 1013.94
1015.84 1015.05 1013.05 1013.11 1013.76 1012.62 1011.36 1011.12 1010.59 1010.97 1011.28 1011.30 1011.06 1011.01 1011.59 1012.19 1012.79 1013.54 1013.13 1012.25 1011.55 1011.93 1012.64 1012.56 1013.29 1014.51 1014.57 1014.29 1014.39 1014.46 1014.53 1015.39 1016.35 1016.91 1016.44 1015.33 1008.86 1009.08 1009.37 1009.65 1010.18 1010.79 1011.43 1012.34 1013.28
1015.23 1014.28 1012.88 1013.04 1012.41 1012.04 1011.29 1010.71 1010.39 1010.37 1010.34 1010.46 1010.55 1010.25 1010.84 1011.20 1012.02 1012.13 1011.85 1011.29 1011.55 1011.47 1011.36 1012.08 1012.82 1014.04 1014.43 1014.70 1014.63 1014.37 1014.45 1014.41 1014.88 1014.96 1013.60 1014.19 1006.99 1008.70 1009.03 1009.17 1009.70 1010.35 1011.23 1012.40 1013.33
1015.41 1014.11 1013.49 1012.80 1011.63 1011.47 1011.33 1010.48 1010.60 1009.98 1010.18 1009.85 1009.06 1009.84 1010.32 1010.23 1010.30 1010.72 1011.12 1010.84 1010.55 1010.92 1010.82 1010.86 1011.82 1011.90 1011.32 1011.88 1012.57 1013.67 1013.37 1013.50 1013.82 1013.31 1011.80 1009.91 1007.64 1008.07 1008.44 1008.85 1009.37 1009.86 1010.86 1011.93 1012.85
1014.84 1013.55 1012.56 1012.19 1011.78 1011.26 1011.26 1010.38 1009.69 1009.81 1009.56 1009.90 1009.84 1009.33 1009.48 1009.42 1009.79 1009.74 1010.24 1010.68 1010.36 1010.20 1010.69 1011.12 1011.66 1011.77 1010.71 1011.33 1011.62 1011.57 1011.68 1012.05 1011.96 1009.69 1010.97 1005.55 1008.16 1005.29 1007.51 1008.16 1008.39 1009.41 1010.67 1011.67 1012.38
1013.90 1013.64 1013.01 1012.12 1011.27 1010.97 1010.77 1009.79 1009.91 1009.98 1010.15 1009.63 1008.91 1008.78 1008.83 1008.80 1008.93 1008.74 1009.56 1009.95 1010.15 1010.29 1010.57 1010.63 1010.36 1011.51 1010.40 1010.65 1011.09 1011.22 1010.62 1009.68 1009.25 1009.00 1009.25 1007.31 1006.03 1006.61 1006.66 1007.09 1008.02 1008.69 1009.81 1010.75 1011.16
1012.80 1012.73 1012.85 1011.68 1011.37 1011.22 1010.25 1009.61 1009.37 1009.98 1009.59 1009.78 1009.85 1009.31 1008.58 1008.81 1009.06 1008.99 1008.84 1009.20 1009.08 1009.36 1010.20 1010.49 1010.74 1011.17 1009.98 1009.83 1011.04 1010.76 1006.89 1008.66 1008.68 1008.09 1007.90 1007.52 1003.36 1006.13 1006.65 1006.98 1007.14 1007.64 1008.69 1009.30 1009.72
Wind_Speed
7 6 6 7 7 8 8 9 10 11 11 12 14 12 12 13 12 1 1 1 3 6 4 5 3 3 3 3 4 4 6 2 1 6 4 2 4 0 3 7 4 4 4 3 10
4 5 5 6 7 8 8 9 10 10 12 13 15 14 13 13 3 2 0 3 4 4 2 2 2 2 3 2 3 6 5 5 2 3 4 5 5 7 4 4 4 3 3 4 7
2 3 4 5 6 7 8 9 9 11 13 14 15 14 12 7 2 2 1 3 3 2 0 2 1 1 3 2 1 2 5 4 2 1 3 4 1 4 9 3 7 10 10 6 6
0 2 3 5 6 6 7 8 9 10 13 14 15 16 16 2 2 1 1 3 4 4 2 1 3 3 3 2 1 3 1 3 3 1 2 5 1 3 5 6 2 9 8 6 9
2 2 3 4 5 6 7 8 10 11 11 14 15 16 4 4 4 1 1 3 3 1 2 2 3 2 4 2 2 2 2 2 3 4 3 1 3 4 4 2 5 11 8 9 8
2 4 4 4 5 6 7 9 10 10 12 13 14 15 3 2 2 4 2 1 2 2 1 3 2 2 3 2 3 3 0 3 4 4 4 5 3 3 2 6 8 9 9 8 9
6 3 4 5 5 6 8 9 10 10 11 13 11 4 2 9 3 3 3 1 1 1 2 2 1 3 2 2 1 1 3 5 5 5 4 4 5 11 6 9 9 9 8 8 9
8 5 5 4 6 7 8 10 10 10 11 10 11 1 6 1 1 2 1 3 3 4 3 2 3 5 3 2 4 1 4 2 3 7 2 6 8 6 9 13 12 10 8 8 8
9 7 6 5 5 7 9 10 10 11 10 9 2 1 8 2 2 4 2 4 3 3 4 2 4 3 5 5 5 5 4 5 8 7 4 5 7 3 6 9 9 9 9 9 8
10 9 8 7 5 6 9 12 8 9 2 1 1 3 2 4 2 4 2 5 3 3 4 5 6 4 3 4 6 6 5 5 5 5 2 4 12 5 6 9 13 10 10 10 11
10 9 9 7 5 4 6 4 3 2 2 9 7 4 3 0 2 1 3 4 3 4 5 1 4 8 13 10 4 4 4 5 4 5 6 9 9 12 9 7 9 10 12 13 16
12 11 10 8 4 2 2 2 3 1 7 9 6 6 3 5 3 4 5 6 4 5 5 4 8 12 4 5 6 4 4 8 6 5 7 7 11 12 6 10 14 18 16 17 8
7 13 12 9 6 3 3 5 3 2 2 7 8 8 8 8 8 10 11 5 5 6 9 9 6 6 9 5 6 7 8 5 9 2 3 4 7 9 10 10 8 16 17 16 20
5 7 13 14 5 5 5 6 4 3 2 8 7 9 7 8 7 7 10 8 4 12 7 7 5 5 6 7 8 8 7 6 5 1 5 3 9 6 6 12 9 18 14 18 14
6 6 12 19 7 6 2 7 6 2 5 5 5 1 5 10 5 3 2 3 10 10 8 10 7 8 7 8 10 7 4 5 3 3 2 5 5 6 3 8 13 18 14 15 16
7 7 11 11 1 2 5 8 4 4 14 3 3 4 7 3 2 3 4 2 4 5 3 4 1 7 8 3 7 5 5 6 5 3 6 11 9 6 8 12 9 17 11 14 16
7 7 5 5 3 5 9 5 6 7 2 6 5 6 4 6 3 5 8 11 11 8 12 3 5 4 5 6 3 5 7 3 4 1 11 3 8 18 6 10 13 15 9 10 11
7 7 5 6 4 13 6 4 6 10 8 3 4 3 6 6 4 5 7 11 11 2 4 12 8 13 8 12 9 10 10 9 9 6 5 1 10 9 12 12 8 9 7 7 9
9 2 4 6 8 9 8 9 11 9 7 8 5 4 4 4 5 4 6 6 10 13 12 7 8 1 0 4 13 8 9 6 2 2 2 7 9 9 10 9 10 13 4 8 10
1 3 5 7 12 8 12 20 11 7 6 9 17 7 10 7 7 7 10 7 7 14 2 6 4 1 1 4 2 7 9 3 1 3 7 6 7 11 5 11 13 11 8 9 8
1 3 5 10 9 10 15 17 10 6 4 8 13 11 10 9 8 7 7 3 9 9 19 5 5 1 3 8 12 4 6 3 5 6 6 3 9 8 11 11 10 11 9 10 12
3 5 4 10 10 6 11 7 5 11 12 6 6 18 11 13 8 8 13 9 9 8 13 11 4 6 9 2 2 1 4 7 6 6 6 3 20 4 6 6 7 8 8 9 11
4 3 4 8 10 14 11 7 8 6 14 13 13 12 9 9 6 13 7 7 6 14 13 11 6 1 6 4 2 5 6 12 1 2 12 6 18 1 4 4 5 9 5 6 9
4 4 4 4 7 12 16 19 14 8 8 11 12 9 9 13 14 8 6 7 11 11 7 15 7 11 18 4 9 8 9 14 19 12 6 25 19 6 4 5 7 7 5 8 10
6 5 4 5 13 17 13 3 14 12 15 17 8 17 18 13 17 19 18 6 4 8 11 14 11 12 22 13 8 10 14 22 25 31 14 33 20 21 10 12 10 6 6 8 10
6 5 3 8 2 14 17 18 18 13 3 3 12 21 22 16 17 16 16 15 19 3 9 4 19 21 28 19 11 8 12 24 30 28 28 30 34 8 8 5 6 11 10 11 15
4 3 3 4 5 4 5 18 18 11 8 13 15 7 7 10 11 16 12 4 7 17 12 11 13 7 20 16 5 6 38 13 14 21 21 25 38 9 14 13 12 12 12 15 15
Wind_Direction
100 75 49 45 43 35 28 13 10 0 353 342 337 334 333 334 321 75 178 286 281 313 338 303 353 337 41 55 40 95 64 113 177 154 215 177 131 33 74 99 61 358 147 184 136
101 93 73 48 32 24 15 11 358 357 345 341 334 333 334 336 360 295 221 292 296 322 41 42 26 359 43 50 22 81 98 193 196 191 210 187 156 151 117 112 53 50 27 89 127
89 66 52 45 37 21 5 360 354 348 345 338 335 332 328 328 36 246 279 282 271 343 290 278 292 85 78 76 32 150 159 191 196 258 146 169 164 186 125 232 191 187 177 154 136
116 40 28 20 15 14 3 351 346 345 342 338 336 329 324 95 178 273 232 276 287 308 305 15 36 61 81 86 82 99 210 173 165 162 115 160 175 158 180 214 218 169 153 142 149
313 336 0 358 357 354 350 348 340 336 337 338 336 333 355 20 259 136 186 273 286 320 64 101 66 93 121 146 70 125 234 174 164 149 150 108 194 188 213 174 101 122 140 156 159
258 309 322 329 334 339 340 337 334 330 330 336 338 330 24 271 123 148 164 163 325 16 45 61 132 149 108 128 142 178 320 257 215 203 184 182 223 167 193 158 143 149 166 171 172
219 254 301 312 315 324 326 325 323 322 325 327 337 349 22 235 325 171 153 126 19 59 96 31 106 86 97 95 252 87 304 318 230 197 211 140 285 236 166 165 175 182 177 180 189
240 220 250 289 307 312 315 315 311 312 317 318 321 348 248 14 1 147 129 24 35 32 88 12 43 98 94 133 29 49 44 342 287 144 235 131 260 254 169 166 196 194 194 194 201
232 225 231 247 279 303 307 302 302 309 299 303 337 101 265 345 153 220 136 144 73 25 27 42 59 96 51 91 13 354 232 211 311 194 136 172 260 259 159 176 200 203 203 206 204
232 224 223 241 250 290 300 292 289 319 317 194 267 4 264 220 163 150 157 143 111 92 39 56 50 75 45 110 218 204 223 241 225 206 184 197 263 256 195 194 213 204 213 213 208
234 229 223 222 239 285 338 351 4 298 262 193 194 215 128 270 13 114 138 108 92 67 151 155 115 201 209 202 173 168 198 238 253 216 170 223 243 261 208 226 236 227 220 217 218
215 223 219 209 204 258 51 247 246 195 302 238 233 278 171 177 118 230 125 139 149 180 124 61 229 227 163 205 223 243 251 264 284 244 178 251 245 251 201 222 218 222 222 220 185
250 216 199 179 180 147 244 227 57 84 262 280 199 186 187 162 203 193 151 147 158 146 194 175 213 166 169 182 192 231 216 234 232 345 268 320 269 241 248 232 234 236 227 220 203
296 253 200 150 175 154 224 220 213 6 302 262 220 243 143 135 239 177 180 145 179 189 173 233 234 158 172 205 168 237 204 201 229 133 244 156 281 259 252 247 229 241 220 220 194
288 297 200 167 148 186 281 143 130 70 282 235 178 62 169 166 141 228 242 90 172 179 143 229 183 186 186 196 172 231 166 192 212 199 3 214 286 261 233 260 248 247 229 214 191
295 263 217 193 235 157 114 106 51 184 234 207 125 152 137 166 73 99 130 65 154 152 264 227 185 171 195 127 176 138 78 45 49 79 259 229 193 206 208 224 247 251 243 203 188
311 292 235 172 214 149 125 97 135 226 354 194 177 164 179 159 145 160 167 180 173 155 221 146 215 197 147 104 67 119 111 291 317 337 241 284 204 249 276 260 223 253 249 206 187
303 291 234 242 178 149 144 117 203 211 227 107 119 78 183 150 194 167 139 189 238 175 122 191 253 172 186 194 168 198 163 165 215 213 259 5 239 248 228 261 267 259 273 178 174
313 263 232 199 203 179 186 224 199 185 199 175 116 128 243 209 154 141 204 232 205 184 194 175 255 82 115 141 158 198 214 178 341 75 357 222 281 290 256 279 267 261 177 179 186
337 277 237 189 179 203 219 223 212 199 172 197 205 167 178 191 172 185 174 198 208 197 192 211 277 334 162 110 44 162 161 96 10 224 254 268 260 237 236 234 248 258 202 198 173
181 244 251 171 170 226 217 222 199 199 191 186 199 202 215 179 188 199 217 254 195 203 192 173 178 250 133 208 171 151 188 180 137 163 196 298 257 218 210 213 232 253 226 185 185
239 232 254 155 204 233 226 222 206 188 219 213 209 198 193 185 184 210 218 228 189 155 186 198 202 189 206 225 238 214 221 154 149 219 234 165 260 159 197 199 208 260 225 192 185
242 246 289 186 214 223 236 223 222 180 202 203 214 203 199 190 201 205 225 211 193 170 174 165 216 38 331 346 310 209 195 203 147 75 218 173 261 259 219 237 234 244 227 182 171
278 244 228 214 261 222 225 240 237 190 240 244 221 188 196 210 218 203 219 234 191 206 203 166 175 205 228 167 150 200 196 199 209 233 208 235 259 213 209 226 248 234 199 188 180
222 238 218 193 227 237 240 254 232 229 217 197 239 229 218 231 224 217 224 248 204 219 197 176 232 222 243 247 190 202 198 203 209 226 206 254 240 253 213 218 232 208 194 180 188
203 212 260 246 285 211 227 242 239 234 230 244 245 222 221 230 212 241 223 216 223 173 182 217 229 227 253 237 195 227 221 218 213 223 231 252 258 136 208 205 192 212 186 195 204
215 213 251 237 226 219 228 226 233 231 236 214 249 255 301 244 267 269 262 266 232 219 213 198 208 197 237 234 162 248 237 187 216 224 218 234 246 208 252 231 222 221 198 207 212